Theta_e
330 333 338 338 337 338 337 336 335 334 333 332 331 330 329 326 324 322 321 320 326 333 334 334 334 333 331 328 324 318 315 316 315 314 316 318 320 321 322 323 324 325 327 328 329 328 327 329 331 332 333 334 334 335 334 333 331 327 324 326 328 330 331 332 332 333 332 332 332 332 331 330 329 329 329 329 328 327 328 328 328 328 328 328 327
325 331 337 338 337 337 337 336 335 334 332 331 330 329 327 324 323 321 319 319 326 330 330 331 331 330 328 325 321 316 315 315 314 315 317 319 320 321 322 323 324 325 328 327 326 325 325 328 331 332 333 334 334 334 333 334 333 329 325 322 325 329 331 332 332 333 332 332 332 332 331 330 329 329 329 329 328 327 328 328 328 328 329 329 328
323 331 335 337 337 337 337 335 335 333 331 330 329 328 325 323 322 320 317 319 325 327 327 327 327 326 324 322 317 315 315 314 314 315 317 319 320 322 322 323 325 326 327 326 324 323 323 327 330 331 332 333 333 333 333 333 333 332 327 322 320 324 328 331 331 332 332 332 331 331 330 330 329 328 327 327 326 326 326 327 327 327 328 328 329
323 329 332 335 336 337 337 335 334 332 330 329 328 326 324 323 321 319 317 320 324 325 324 323 323 322 321 318 315 315 315 314 314 315 318 319 321 321 322 323 325 326 326 325 322 320 323 329 330 331 332 333 333 332 332 333 333 332 329 325 320 320 325 328 330 330 330 331 330 330 330 330 330 329 327 325 324 323 323 323 324 324 324 326 328
322 326 329 334 336 336 336 335 333 330 328 328 327 325 324 323 320 319 318 321 323 322 321 319 319 319 318 316 315 315 315 314 314 315 318 320 321 321 322 324 325 326 325 324 320 318 322 327 329 330 332 333 333 332 332 333 333 333 332 328 322 320 324 327 328 329 329 330 330 331 331 331 331 330 328 327 326 325 324 322 322 322 321 323 326
321 324 327 333 335 335 335 334 332 329 327 327 326 324 324 322 321 321 321 321 322 320 319 317 317 317 316 315 315 315 314 313 314 316 318 320 321 321 323 324 325 325 325 322 317 316 319 321 324 328 331 332 332 332 332 332 333 333 333 329 324 320 323 326 327 328 329 329 330 330 331 331 331 331 330 329 328 328 328 324 323 325 325 324 324
321 322 324 330 333 333 334 333 332 327 325 326 324 324 324 322 321 322 323 322 320 319 317 316 315 316 315 315 315 315 314 313 314 316 319 320 320 322 323 324 325 325 324 320 316 314 316 317 320 325 328 330 332 332 332 332 332 333 332 330 326 322 321 324 326 326 327 328 329 329 330 331 331 331 329 329 328 327 328 325 323 324 326 325 323
321 321 323 330 332 331 332 332 331 327 324 324 322 323 323 322 321 321 323 322 319 318 317 316 314 314 314 315 315 315 314 313 313 316 319 320 320 322 324 325 324 324 323 319 315 313 314 315 318 323 326 329 331 332 332 332 332 332 332 331 329 325 322 322 324 326 326 327 328 328 329 329 329 328 327 326 324 322 322 322 320 319 319 320 318
321 322 323 329 332 331 331 331 330 326 323 323 322 323 322 321 321 321 322 321 318 316 316 315 314 314 314 315 315 314 314 313 313 316 319 320 320 322 323 324 324 322 321 318 314 313 313 314 316 320 324 327 330 332 332 332 331 332 332 332 330 327 324 321 322 324 327 328 328 329 329 328 327 325 325 323 320 317 315 315 314 312 310 310 310
321 321 323 326 330 331 330 331 329 325 323 322 322 322 322 321 320 320 321 322 319 316 315 315 314 314 314 315 315 314 314 313 313 315 318 319 319 321 322 323 323 321 321 318 314 313 313 313 314 318 321 325 329 331 331 331 331 331 332 332 330 328 326 322 320 321 325 327 328 328 327 325 322 323 323 320 319 315 311 308 306 305 304 304 305
320 320 322 324 327 330 330 331 329 324 323 323 322 322 323 322 319 319 320 321 321 317 315 315 315 314 314 315 315 314 314 313 313 315 318 319 318 319 320 321 321 320 320 318 314 313 313 313 313 315 319 323 327 329 331 332 331 331 331 331 330 329 327 323 319 318 322 324 323 324 325 323 323 325 323 320 318 311 305 304 303 303 303 303 303
320 320 321 322 323 327 330 330 327 324 323 322 322 322 323 323 320 318 319 320 321 319 315 315 316 314 314 315 315 314 314 314 313 314 317 318 318 318 318 319 319 319 320 317 313 313 313 312 312 314 316 320 324 328 330 332 332 331 331 331 331 330 327 323 319 318 320 322 322 323 325 325 325 327 324 321 316 307 303 303 303 303 303 303 303
321 321 321 321 320 324 327 329 326 323 323 323 323 323 323 323 322 319 318 318 321 321 318 315 315 314 314 314 315 314 314 314 314 314 317 318 317 316 317 318 318 317 319 316 313 314 314 313 313 313 315 319 322 326 329 331 332 331 330 331 331 330 327 323 320 320 323 323 324 325 325 326 326 327 325 320 313 304 303 304 303 304 304 304 304
321 321 322 321 320 322 325 327 326 324 323 323 323 322 323 323 323 321 319 318 318 321 321 317 315 315 314 314 315 315 315 314 314 314 316 318 316 316 316 317 316 316 318 316 314 314 315 314 313 313 314 318 321 324 329 331 332 331 330 331 331 331 328 324 322 322 325 325 325 325 325 326 327 327 324 318 309 303 303 304 304 304 304 304 306
320 320 321 322 321 321 325 327 325 324 323 324 323 323 323 322 323 322 320 319 317 319 321 320 317 315 314 314 314 315 315 314 315 314 316 318 317 316 316 316 316 316 318 316 315 315 315 315 314 313 314 317 320 324 329 330 330 331 331 331 331 331 330 327 324 324 326 326 327 327 326 326 326 326 322 315 307 303 304 303 304 304 306 309 311
320 320 319 322 323 321 324 326 325 324 324 324 324 323 323 322 322 322 321 319 318 318 319 320 319 317 316 314 314 314 315 314 314 315 316 317 317 316 316 316 316 316 318 317 315 315 315 316 315 313 314 316 319 323 328 328 328 329 330 330 331 331 331 329 327 327 328 328 328 327 327 326 326 326 320 313 305 303 304 303 304 307 311 314 313
320 321 319 321 323 321 323 325 325 324 324 324 323 323 323 323 323 322 321 321 320 319 319 319 320 319 318 316 314 314 315 315 315 314 315 316 317 317 315 316 315 315 317 316 314 315 315 316 316 314 314 316 319 322 326 328 326 326 328 329 330 331 331 330 329 329 329 329 329 328 328 328 327 325 318 310 304 303 304 303 305 307 311 314 314
321 322 319 320 321 321 323 324 325 325 324 324 324 323 323 323 323 322 322 322 321 321 321 320 320 320 319 318 316 314 314 314 315 314 315 316 317 317 316 315 315 315 316 315 314 314 314 315 316 315 314 316 319 322 326 327 325 325 327 328 329 330 331 331 330 329 329 329 329 329 329 328 327 324 315 307 303 304 304 304 307 308 308 311 311
321 321 320 321 320 320 322 322 324 324 324 323 323 323 323 323 323 323 323 322 322 322 322 322 322 321 319 319 318 316 314 314 315 315 315 315 316 316 317 316 315 314 315 314 313 314 314 314 315 315 315 316 319 322 326 327 326 326 326 328 328 329 330 330 330 329 329 329 329 330 328 327 326 320 311 305 303 304 303 303 308 308 305 308 310
323 321 320 321 320 319 320 322 323 324 323 322 323 323 323 323 323 323 323 323 323 323 323 323 323 322 319 319 319 318 315 314 314 314 315 315 315 315 316 316 316 315 314 314 313 314 314 313 314 315 315 315 319 323 326 328 327 327 327 327 328 328 329 329 330 329 329 329 329 329 327 326 322 315 308 304 303 304 303 304 308 306 304 309 309
327 325 322 320 321 319 319 321 322 323 323 322 322 323 322 323 322 322 323 324 324 324 323 323 323 323 321 319 320 320 318 316 315 314 314 314 315 315 315 315 316 315 315 314 314 313 313 314 313 314 316 315 318 324 327 328 327 328 328 327 327 327 328 329 329 329 329 329 329 327 325 323 317 309 305 303 304 303 303 306 308 304 306 311 308
329 331 329 322 320 319 319 321 321 322 322 322 322 322 322 322 322 322 323 323 324 324 324 324 323 323 322 321 320 321 320 318 317 316 315 315 315 314 315 314 315 315 315 315 314 314 313 314 313 313 315 316 318 325 329 328 328 329 328 327 327 327 327 328 329 329 329 328 327 325 322 317 310 305 304 304 303 303 304 308 308 303 306 310 307
329 331 331 322 320 319 320 321 320 322 321 322 322 321 321 320 321 321 321 322 323 323 323 324 323 322 322 321 320 321 322 321 319 318 318 317 316 315 315 314 314 314 315 315 315 315 314 314 314 313 315 316 318 327 330 328 328 329 329 327 327 327 327 328 329 329 329 328 327 323 316 311 305 305 305 304 304 304 307 309 308 304 304 307 307
329 331 329 321 321 319 319 321 320 322 321 321 321 321 321 319 320 320 320 320 321 321 322 322 321 320 320 319 320 321 323 323 322 320 320 319 319 319 316 314 314 314 314 314 315 314 314 314 314 312 314 315 320 328 331 329 329 329 330 328 327 327 327 328 329 330 329 327 325 319 311 306 305 305 305 304 304 306 309 309 306 303 302 306 308
332 334 331 321 322 320 319 320 320 321 321 321 321 321 320 319 319 319 319 318 318 318 319 320 318 317 316 317 318 320 322 323 324 323 322 322 322 323 320 316 314 315 315 314 314 314 314 314 314 313 313 316 324 330 329 329 329 329 330 329 327 327 328 329 330 330 327 322 320 314 306 305 306 305 306 305 305 308 311 308 303 302 302 306 307
334 334 329 323 323 320 319 319 320 320 320 320 320 321 320 319 319 318 319 317 316 316 316 316 315 313 312 313 316 318 320 322 324 324 323 323 323 324 323 319 315 314 315 315 315 314 314 314 314 313 312 318 326 330 328 328 329 329 330 330 328 327 328 329 330 329 323 317 313 308 305 306 306 306 306 305 307 311 313 308 303 302 302 303 304
332 333 327 325 325 323 321 319 319 319 320 320 320 320 319 318 318 318 318 316 316 315 315 315 313 312 311 312 314 316 318 320 323 325 324 323 323 323 324 321 317 314 314 315 315 315 314 314 314 313 314 321 327 329 328 327 328 329 330 330 329 328 329 329 330 328 322 318 312 306 305 306 306 306 305 304 307 313 314 308 302 302 302 302 302
329 331 330 327 328 328 324 319 319 319 319 320 319 319 318 317 318 318 317 315 315 315 316 315 313 312 311 313 315 315 316 318 321 324 326 324 323 322 323 323 319 315 313 314 315 315 315 314 314 312 317 325 327 329 329 328 328 329 330 330 329 328 329 330 330 328 324 323 318 310 307 307 306 305 305 304 305 311 313 308 301 304 304 302 303
332 330 334 331 329 329 326 321 319 319 319 319 319 318 317 317 317 318 316 314 314 314 315 315 313 312 311 313 316 318 317 317 319 323 325 325 324 322 322 323 321 316 312 313 314 315 315 314 315 313 319 327 327 328 329 329 329 329 330 330 329 329 329 330 330 329 326 325 322 314 308 306 306 305 305 304 303 307 310 306 301 304 304 303 305
338 336 339 335 330 328 326 324 319 318 319 318 319 318 317 317 317 317 317 315 315 315 315 315 312 312 312 313 315 319 319 317 318 322 324 325 325 323 321 322 322 317 312 313 314 315 315 315 314 313 320 328 327 328 328 329 328 328 330 331 330 329 329 330 330 329 327 326 321 314 309 306 305 304 304 303 303 303 305 305 303 302 302 303 304
341 340 339 335 332 329 326 324 321 318 319 319 319 318 318 317 317 317 317 316 316 316 315 314 312 311 312 312 313 316 319 318 317 320 323 324 325 324 321 320 322 319 313 313 313 314 315 315 315 313 320 327 328 328 327 327 327 327 329 331 330 329 330 330 329 329 327 326 322 316 312 307 304 303 302 302 303 302 303 305 305 304 302 301 302
341 340 339 335 332 329 327 324 322 320 319 319 319 319 318 318 318 318 317 317 317 317 316 314 312 312 312 312 312 313 316 318 316 317 321 323 324 324 322 319 320 319 315 312 312 314 314 315 316 314 318 325 327 328 327 326 326 326 327 330 330 329 330 330 329 329 327 327 325 323 318 310 308 307 304 302 302 302 302 303 306 306 304 303 302
342 341 338 334 331 330 330 326 322 321 320 319 319 319 319 319 319 319 318 318 318 318 317 315 313 312 312 312 312 312 314 317 315 316 318 321 322 322 322 320 318 318 316 312 312 313 313 314 316 315 316 321 325 326 327 326 326 327 327 330 331 330 330 330 329 328 327 327 326 326 321 316 315 313 308 303 301 302 301 301 305 307 306 305 304
343 342 340 336 332 331 333 330 323 321 320 320 320 319 320 320 320 320 319 319 318 318 318 317 315 313 313 313 313 313 313 315 315 314 315 317 319 319 320 321 320 317 315 313 312 312 312 312 314 315 315 318 321 323 325 327 328 328 327 330 331 330 330 330 329 329 327 327 327 326 324 321 318 315 312 305 300 301 301 300 301 305 307 307 305
344 342 342 340 336 334 335 333 323 322 321 320 320 320 321 322 321 321 321 321 320 319 319 319 316 315 314 314 314 313 313 314 314 315 315 315 316 318 318 321 322 319 315 313 311 312 312 312 313 314 315 316 317 320 325 329 329 328 328 330 331 330 331 330 329 329 328 327 327 326 324 324 321 317 313 308 304 301 301 301 299 301 304 306 306
341 340 340 341 340 336 338 336 328 323 323 321 321 321 322 322 323 322 322 323 322 321 321 320 319 316 315 315 314 313 313 314 315 318 319 316 315 316 318 319 322 322 318 314 311 312 312 311 312 313 314 315 315 321 327 329 329 329 329 331 331 331 331 330 329 329 328 327 327 327 325 324 323 320 315 312 310 305 301 301 300 300 300 302 305
336 335 334 337 339 335 336 339 335 328 325 324 322 322 323 323 323 323 323 324 324 324 323 322 321 319 316 315 314 314 313 314 318 322 322 318 315 315 319 321 322 323 321 317 312 311 312 312 311 313 314 314 317 325 329 329 329 329 330 331 331 331 331 330 330 329 329 328 327 326 326 324 323 322 318 314 313 309 304 302 301 301 301 300 302
332 330 328 334 339 338 336 339 337 335 330 327 326 325 326 325 325 325 325 325 325 325 325 324 323 321 318 316 315 314 314 316 322 326 324 319 316 318 323 324 323 323 323 320 315 311 311 311 311 312 313 316 324 328 329 329 329 329 330 331 331 331 331 330 330 329 329 328 327 326 326 325 324 323 320 316 314 312 307 304 303 303 304 303 301
329 328 327 330 337 339 339 339 339 338 336 332 330 330 330 329 327 327 326 326 326 327 326 325 324 323 321 318 317 316 317 321 325 327 325 319 318 323 326 325 323 323 322 321 317 312 311 311 312 312 313 321 328 329 329 329 329 330 331 331 332 331 331 330 330 330 329 328 326 326 326 325 324 323 321 318 315 313 310 306 304 304 306 305 302
325 326 327 329 332 336 339 339 341 340 337 334 333 332 332 330 328 327 327 327 327 327 327 327 326 325 323 320 318 318 320 327 329 328 326 322 320 325 327 325 324 322 321 322 319 314 311 311 311 311 317 325 328 328 329 330 329 331 332 331 332 331 330 330 330 330 329 328 326 326 325 325 325 324 322 320 316 314 312 309 306 305 306 305 303
324 323 325 330 331 334 339 341 341 340 337 335 334 334 333 332 330 330 328 328 328 328 327 327 327 326 324 322 320 320 324 330 331 329 327 324 322 326 329 327 324 321 321 321 319 314 311 311 311 313 321 327 328 328 329 330 330 331 332 332 331 330 330 330 330 330 329 328 327 326 326 326 325 324 323 321 318 316 314 312 308 305 306 307 305
327 322 323 329 330 332 337 340 341 340 339 336 333 333 334 334 334 333 330 329 329 329 328 328 328 327 326 324 322 322 326 332 333 331 329 326 324 326 329 328 326 322 320 320 317 313 311 311 313 317 325 328 328 328 328 329 331 331 332 331 330 330 330 329 329 329 329 328 327 326 326 326 324 323 323 322 320 318 315 313 310 307 307 308 307
331 326 325 329 329 329 331 335 339 341 340 335 330 330 333 336 336 336 334 331 330 330 330 330 328 328 327 326 324 324 328 333 334 333 331 329 327 326 328 330 329 325 320 318 316 313 312 313 316 322 326 327 328 328 329 329 330 331 332 330 330 330 330 329 328 328 328 328 327 327 327 325 324 323 323 324 322 319 317 314 311 309 309 309 309
336 335 334 334 332 330 328 331 337 340 337 332 330 330 332 334 335 336 336 334 332 332 333 333 330 329 328 327 325 324 328 333 335 334 333 331 330 328 328 329 330 329 324 319 317 317 316 316 320 325 327 327 327 328 330 330 330 331 331 330 329 328 328 327 327 327 328 328 328 327 326 325 324 323 324 324 322 320 319 316 312 310 310 311 310
336 338 339 336 333 334 334 334 336 336 333 331 329 328 329 332 332 334 337 337 334 334 335 335 332 329 328 327 326 324 328 334 336 335 334 332 332 331 330 329 330 331 329 325 323 323 322 322 324 327 328 327 327 327 329 331 331 331 331 330 327 326 327 326 327 327 327 328 327 326 326 325 324 324 324 324 323 321 320 318 315 312 311 312 311
333 337 340 338 336 338 338 338 337 333 331 330 328 327 328 330 330 332 336 338 336 335 336 336 332 330 329 328 327 325 328 334 336 335 335 334 333 333 332 332 331 331 331 329 327 328 328 328 328 328 328 328 327 327 329 330 332 332 332 331 329 328 328 327 328 328 328 327 327 326 325 324 324 324 325 325 324 323 321 319 317 314 311 311 312
333 336 340 340 339 339 338 337 336 334 330 328 328 328 327 328 330 331 334 337 337 336 336 336 333 332 332 331 329 328 329 334 336 336 336 337 336 334 333 333 333 332 332 331 330 329 329 330 330 330 329 329 329 329 329 330 331 332 332 332 331 331 330 329 329 329 329 328 327 327 326 325 324 324 325 325 325 324 323 321 319 316 313 311 312
331 335 338 340 340 339 338 337 335 333 330 328 327 327 326 327 330 330 331 336 338 338 337 337 335 334 335 334 331 330 331 334 335 336 337 338 338 336 335 334 334 334 333 333 332 330 329 330 331 331 330 329 329 330 331 331 331 331 331 331 331 331 331 330 330 331 331 331 330 330 329 326 325 324 325 325 325 325 324 322 319 318 315 312 311
322 328 332 335 338 339 338 336 334 331 328 327 327 326 327 327 328 330 330 333 338 339 338 338 337 336 336 336 334 333 333 334 335 336 336 337 338 338 337 336 335 334 334 334 334 333 331 331 331 331 331 330 330 331 332 331 331 331 331 331 331 330 330 330 330 331 331 331 331 331 330 328 326 325 325 325 325 325 324 323 320 318 317 313 311
312 317 322 328 333 336 336 333 332 330 326 326 327 326 327 327 326 329 330 330 336 340 339 338 338 338 338 337 336 335 334 335 336 336 336 337 338 338 338 338 337 336 335 334 335 334 331 330 331 331 331 331 331 331 331 331 331 332 332 331 331 330 329 328 329 330 331 331 331 331 330 328 327 326 325 324 324 324 323 321 320 318 317 314 312
309 311 317 323 327 331 334 332 327 326 325 325 326 326 326 327 327 329 331 332 337 340 340 339 339 339 338 337 337 336 335 336 337 337 337 337 338 339 339 339 339 338 336 335 334 334 332 330 330 331 331 331 331 331 331 331 331 332 332 331 331 331 330 329 329 329 331 331 331 331 330 328 328 327 325 325 323 322 321 320 319 318 316 314 313
Wind_Speed
29 28 27 28 28 27 23 22 21 21 20 20 20 19 19 18 18 18 18 19 20 20 20 21 21 22 21 20 19 19 20 22 23 22 22 22 22 21 21 20 20 19 18 18 18 16 15 15 15 15 15 16 16 16 16 17 17 18 19 19 18 17 17 16 16 17 18 19 19 20 20 19 18 18 17 17 17 17 18 17 17 18 19 17 17
33 30 28 28 28 27 24 22 21 21 20 20 20 20 19 19 19 18 19 20 21 21 21 21 21 21 20 20 20 20 22 23 23 23 23 22 21 21 21 20 19 18 18 17 16 15 14 16 15 14 15 15 15 15 15 15 16 17 18 19 18 17 16 16 16 17 18 19 19 19 20 19 18 17 17 17 17 17 16 16 16 17 17 16 16
34 32 30 28 28 28 25 24 22 22 21 20 20 20 20 20 19 18 19 21 22 22 21 21 21 20 20 20 21 21 23 23 23 24 23 21 21 21 20 20 19 18 17 16 15 14 14 15 15 14 14 14 15 15 15 14 15 16 17 18 18 16 16 16 16 17 17 18 18 18 19 18 18 17 16 16 15 15 14 15 15 16 15 14 14
33 32 31 29 29 28 26 25 23 23 21 21 20 20 20 20 19 19 20 22 22 22 21 21 21 21 21 21 21 22 23 24 24 24 23 21 21 21 20 19 18 17 16 14 14 14 14 15 14 14 13 14 15 16 16 15 15 15 16 17 18 16 15 16 16 17 17 17 18 18 18 18 18 16 15 14 14 13 13 13 12 13 12 11 12
31 32 32 30 30 28 27 25 24 24 22 21 20 20 20 20 20 19 21 22 22 22 21 21 21 22 21 22 22 23 24 24 24 24 22 21 21 20 20 19 17 15 14 14 14 13 14 15 14 14 13 13 14 16 17 16 16 15 16 16 17 16 16 16 16 16 16 16 17 18 18 18 17 15 15 15 14 14 13 12 12 12 11 10 9
29 31 31 31 31 29 27 26 25 24 23 22 21 21 20 20 20 20 21 21 21 22 22 22 22 22 22 22 23 24 24 24 25 23 21 21 20 20 20 18 17 15 13 13 13 13 13 14 14 14 13 12 12 14 16 17 16 15 15 16 17 16 16 15 15 15 15 15 16 17 17 17 17 15 14 15 14 14 13 12 12 13 12 10 8
27 29 31 31 30 29 28 26 26 25 24 23 22 22 21 20 20 21 20 21 21 22 22 22 22 23 23 23 24 24 25 25 25 23 21 21 20 20 19 18 16 14 13 13 13 13 13 14 15 14 13 12 12 13 14 16 16 15 15 15 16 16 15 14 14 14 14 14 15 15 16 16 16 14 12 12 12 11 10 10 10 11 11 9 7
26 28 31 32 30 29 28 27 26 25 24 23 22 22 21 21 21 21 20 20 21 22 22 22 22 23 23 23 24 25 25 25 25 23 21 20 20 20 19 18 16 14 12 12 13 12 12 13 15 14 13 12 12 12 13 14 15 15 14 14 14 15 15 13 13 13 13 13 14 14 14 14 13 12 10 8 7 6 5 4 4 4 5 4 2
25 28 30 32 30 29 28 27 26 25 25 24 23 23 22 22 21 22 21 21 21 22 22 22 22 23 24 24 25 25 25 25 24 22 21 20 20 19 19 18 16 13 12 12 12 12 11 12 13 14 12 12 12 12 13 14 14 14 14 13 13 13 13 13 11 11 12 13 13 13 13 12 12 12 10 8 7 6 4 4 3 2 2 1 2
26 29 31 30 30 28 28 27 26 25 25 24 24 23 23 22 22 22 22 21 21 22 22 22 22 23 24 24 25 25 25 25 24 22 20 20 19 19 18 17 15 13 12 11 12 11 11 11 12 12 12 12 11 11 12 13 14 14 13 13 13 12 12 12 10 9 10 12 12 12 12 11 11 12 10 8 8 7 6 6 6 4 4 4 3
26 28 30 29 28 28 27 27 26 25 24 24 24 23 24 23 23 22 22 22 21 21 22 22 22 24 24 25 25 25 25 24 24 22 20 19 19 18 18 17 15 13 12 11 11 11 10 11 10 11 11 11 11 11 12 13 14 14 13 12 12 11 11 10 10 10 10 11 11 11 12 11 11 12 11 10 10 9 7 7 7 6 6 6 5
26 26 28 28 27 27 27 26 25 25 24 24 24 24 24 23 23 22 22 22 21 22 22 22 22 24 25 25 25 25 25 24 23 22 20 19 18 18 17 16 15 13 12 11 11 10 10 10 9 9 10 10 10 11 12 13 13 14 13 12 11 11 10 10 10 11 11 11 11 12 11 10 11 11 12 13 12 10 8 7 7 7 7 7 7
27 27 28 28 26 26 27 26 25 25 25 25 25 24 23 23 23 22 22 22 22 22 22 23 23 24 25 25 25 25 24 24 23 22 20 19 18 17 17 16 14 13 12 11 11 10 10 10 9 8 9 10 10 11 12 12 13 13 13 12 11 11 10 9 10 11 11 11 11 10 9 9 11 12 14 14 12 10 9 9 8 9 9 9 10
27 28 29 28 26 26 27 26 25 25 25 25 25 24 24 23 23 23 23 22 22 22 22 23 23 24 24 24 24 25 24 24 23 22 21 19 18 17 16 16 14 13 12 11 10 9 9 9 8 8 9 9 10 11 12 13 13 13 13 13 12 11 9 9 9 9 9 9 8 8 7 8 11 13 15 14 12 11 11 10 9 10 11 11 12
25 26 27 27 27 26 27 27 26 25 25 25 25 25 24 23 23 23 23 23 23 22 22 23 23 24 24 24 24 24 24 24 23 23 21 19 18 17 17 16 14 13 12 11 9 8 8 8 8 8 8 9 9 10 12 12 12 12 12 13 12 11 9 7 8 7 7 7 6 6 6 9 11 13 15 14 12 11 11 10 10 11 12 12 13
26 25 26 27 27 27 28 27 26 25 25 25 25 25 24 24 23 23 23 23 23 22 22 22 23 24 24 24 24 24 24 24 24 23 22 20 18 17 17 16 14 13 12 11 9 7 7 7 7 7 8 8 9 10 11 11 12 12 12 12 11 10 8 7 7 6 5 5 5 5 6 9 11 14 16 14 13 12 12 11 11 12 12 12 13
27 26 25 27 28 27 28 28 26 26 25 25 25 25 24 24 23 23 23 23 23 22 22 22 22 23 24 24 24 24 24 24 24 23 23 21 19 18 17 16 14 13 11 10 8 7 6 6 6 6 7 8 8 9 10 11 12 12 12 11 11 10 8 7 6 5 4 4 4 5 7 9 11 15 16 14 13 12 12 11 11 11 12 12 13
26 25 24 25 27 26 28 28 27 27 26 26 25 25 25 24 24 23 23 22 22 22 22 22 22 22 24 25 24 24 24 24 24 24 23 22 20 18 17 16 14 13 11 10 8 7 6 5 5 6 6 7 8 9 10 10 12 12 12 11 10 10 9 7 6 5 4 4 4 6 9 11 12 14 15 13 12 12 12 12 11 11 12 12 12
28 28 24 24 25 26 28 29 29 29 28 27 26 25 25 24 24 24 23 22 22 22 22 21 21 22 23 25 25 25 25 24 24 24 23 23 21 19 18 16 14 13 12 10 9 7 6 4 4 5 6 7 8 8 9 10 11 12 12 11 10 9 9 8 6 5 4 5 6 7 11 12 12 14 13 11 11 11 11 11 10 11 12 11 11
31 31 29 28 27 27 30 31 31 30 29 28 26 26 25 25 24 24 23 22 22 22 21 21 20 21 22 25 26 26 26 25 25 24 24 23 22 21 19 17 15 14 12 11 9 7 6 4 4 4 5 6 7 8 8 9 10 11 12 11 11 10 10 8 7 6 6 6 7 9 10 11 12 13 11 10 10 9 10 10 9 11 11 11 11
35 35 34 31 29 30 32 32 31 30 29 28 27 26 26 25 24 24 23 22 22 22 21 21 20 21 22 24 26 27 27 27 26 24 24 24 23 22 20 19 17 15 14 12 10 8 7 5 4 4 4 5 7 7 8 9 10 11 12 12 11 10 10 9 8 7 7 8 9 10 10 11 11 10 10 10 9 9 9 9 9 11 11 11 12
37 35 34 31 30 33 33 32 32 31 30 29 28 27 26 26 25 24 24 23 23 22 22 21 21 21 22 23 26 27 28 27 27 26 25 24 23 23 22 20 19 17 15 14 12 10 8 6 5 4 4 5 6 7 7 9 9 10 11 12 11 10 10 10 9 8 8 9 9 10 10 10 9 9 9 9 9 9 9 8 10 11 11 11 11
39 36 35 33 34 36 34 33 33 31 31 29 29 28 27 27 26 25 24 24 24 23 23 22 22 22 23 24 25 27 27 27 27 27 26 24 24 23 22 21 20 19 17 16 13 12 10 8 6 5 5 4 5 6 7 8 9 10 11 11 10 9 9 9 9 9 8 9 9 10 10 9 9 9 9 9 8 9 9 9 10 11 11 10 11
42 38 37 37 36 37 35 34 33 32 32 30 30 29 28 27 26 26 26 25 25 24 24 23 23 23 23 24 25 26 26 27 27 26 26 25 25 24 23 22 21 20 19 18 16 14 12 10 8 6 5 5 5 6 7 8 9 9 10 10 10 9 8 8 8 8 8 9 9 10 10 9 9 8 8 9 9 9 8 9 10 10 10 10 10
42 37 38 40 37 37 35 34 34 33 32 31 31 30 29 28 27 27 27 26 25 25 25 24 24 23 23 24 24 25 26 27 27 27 27 26 26 25 25 23 22 21 20 19 17 16 14 11 9 8 7 6 6 6 7 7 8 8 9 9 9 8 8 8 8 8 8 10 10 10 10 10 10 8 8 8 8 8 8 9 10 9 9 9 9
42 38 40 41 36 36 36 35 35 33 33 32 32 31 30 29 28 28 28 27 26 25 26 25 23 22 22 23 24 25 26 27 27 27 27 27 27 26 25 25 23 22 21 20 18 17 15 12 10 9 8 7 7 6 6 6 6 7 8 8 8 8 8 8 8 8 9 10 10 10 10 10 9 8 8 8 8 7 7 8 9 9 8 9 8
42 39 42 41 36 35 36 36 36 34 34 33 32 31 31 30 29 30 29 29 27 26 25 24 23 22 21 22 24 25 26 27 27 27 27 27 27 26 26 25 24 23 21 20 19 18 16 14 12 11 9 8 8 7 6 5 5 5 6 7 7 7 7 7 7 7 9 10 10 9 9 9 9 9 8 8 8 7 7 8 9 8 8 8 7
41 39 40 42 37 33 34 36 36 35 35 34 33 32 32 32 31 31 30 29 28 27 25 24 23 22 21 21 22 24 26 26 27 27 27 27 27 26 26 25 25 24 22 21 20 19 18 16 14 12 11 9 9 7 6 5 4 4 4 6 6 6 6 6 6 7 8 9 9 8 8 8 8 8 8 8 8 6 6 7 8 7 7 7 7
40 39 39 43 40 34 34 36 37 36 36 36 35 34 34 33 32 32 31 30 29 28 26 25 24 23 22 21 22 23 25 25 26 26 26 26 26 26 26 26 26 24 23 22 20 20 19 17 15 14 12 11 9 8 7 5 3 3 3 4 5 4 5 5 5 6 7 8 8 7 7 8 8 8 8 8 8 6 6 6 7 6 6 6 7
39 40 40 42 42 37 35 35 38 38 37 37 36 36 35 34 33 33 32 31 29 28 27 26 25 24 23 22 22 22 23 24 25 25 25 25 26 26 26 26 26 26 24 23 21 20 20 18 16 15 13 12 10 8 7 5 3 2 1 2 3 3 4 5 5 5 6 8 8 8 7 7 7 8 8 8 8 7 6 6 7 6 5 5 5
38 39 42 43 43 40 37 37 39 40 38 38 39 38 37 35 35 34 33 31 30 29 28 27 26 25 24 23 23 22 22 23 24 24 24 24 25 26 27 27 27 27 25 23 22 21 20 19 17 16 15 13 11 8 7 5 3 2 1 1 1 2 2 3 3 4 5 7 8 8 8 7 7 8 8 8 8 8 6 6 7 7 6 5 5
40 41 43 45 44 43 42 42 41 40 40 39 39 39 37 37 36 34 33 32 31 29 28 28 27 26 24 23 23 23 23 22 24 24 24 24 24 25 27 28 28 27 27 25 23 22 21 20 19 18 17 15 12 10 8 6 5 3 3 2 1 0 1 2 2 3 5 7 7 8 8 8 8 8 8 7 7 7 7 6 6 7 7 6 7
40 41 44 46 45 44 45 46 44 41 41 40 40 39 38 38 37 36 34 33 32 30 29 29 28 26 24 23 24 24 24 22 22 23 24 24 24 24 26 29 28 27 27 26 25 24 23 22 21 20 20 18 15 12 10 8 7 5 5 4 3 2 1 0 1 2 4 6 6 7 8 8 8 8 8 7 6 7 7 6 5 5 6 7 7
33 35 41 44 44 42 42 45 46 43 42 41 41 40 39 38 37 36 35 34 33 31 29 29 28 27 25 23 23 24 24 23 22 21 22 24 24 23 25 28 29 28 28 28 27 26 25 24 23 22 22 20 17 14 11 9 8 7 6 6 5 3 3 2 1 1 3 5 6 7 8 8 7 8 8 7 6 7 7 6 6 5 5 6 7
30 30 32 35 38 39 37 42 46 44 43 43 41 40 39 39 37 36 36 35 34 32 30 30 29 27 25 24 23 24 24 23 22 21 21 23 24 24 24 26 28 29 29 29 29 28 27 25 24 23 23 21 18 15 12 9 8 8 7 7 6 5 5 3 1 1 2 3 5 6 7 7 7 8 8 7 6 6 6 6 6 5 4 4 5
27 27 27 28 32 35 35 40 45 45 44 43 42 40 39 38 37 36 36 36 35 33 31 30 29 27 25 24 23 23 24 23 22 21 21 22 25 25 23 23 26 29 30 30 30 30 28 27 25 24 23 22 19 17 14 11 10 9 8 7 6 6 6 4 2 1 0 2 3 5 6 7 7 8 8 7 6 6 6 6 6 6 5 4 4
28 27 29 32 33 36 40 41 44 46 45 43 42 42 41 39 38 37 37 36 35 33 31 30 29 27 26 24 24 24 24 23 22 21 21 22 25 25 23 22 24 28 31 32 31 31 30 28 26 24 23 21 19 17 14 12 11 11 10 8 7 7 6 4 3 3 1 1 2 3 4 6 7 8 7 7 6 6 6 6 6 6 5 5 5
35 32 29 33 34 36 42 43 44 44 43 43 43 43 42 39 38 37 36 35 34 33 31 30 29 27 27 26 25 25 25 24 23 22 22 22 24 24 22 22 23 25 29 33 33 31 30 29 27 25 23 21 19 16 14 12 12 12 10 9 8 8 7 5 4 4 2 2 2 3 4 6 7 7 7 7 7 6 6 6 5 5 6 6 6
34 30 24 31 34 31 36 40 41 41 40 40 39 38 38 37 37 35 35 35 35 34 32 31 31 28 27 27 26 26 26 25 24 23 23 22 24 24 22 22 22 23 26 31 34 33 31 29 27 25 23 21 18 15 13 13 13 13 11 9 9 9 8 6 6 5 4 3 3 4 5 6 6 7 7 7 7 6 6 6 5 5 6 6 6
25 23 23 32 34 31 35 38 37 37 35 33 31 30 30 31 33 34 35 35 35 34 34 34 32 30 29 28 28 28 28 27 26 25 24 23 24 25 23 22 21 21 23 29 34 34 31 29 27 25 23 21 19 16 14 13 14 14 12 11 11 11 9 8 8 7 6 6 5 6 6 7 7 7 6 6 7 7 6 6 6 6 5 5 6
22 19 26 32 34 31 33 35 35 34 32 28 24 24 25 27 29 32 33 34 35 36 36 37 35 32 31 30 30 29 29 28 27 26 25 24 25 25 24 23 22 22 22 26 31 32 30 28 26 24 23 21 19 18 15 14 15 15 14 15 13 10 9 9 9 9 8 8 8 8 8 8 8 7 7 7 7 7 7 7 7 6 5 5 6
26 21 27 31 32 32 31 29 32 34 30 25 24 25 26 26 26 28 30 33 35 37 37 39 38 35 33 32 32 30 30 30 28 27 26 25 26 26 26 25 23 23 22 24 27 29 28 27 26 25 23 21 18 18 17 16 17 16 14 14 12 11 11 12 12 11 10 10 10 10 10 10 9 8 7 7 8 8 8 8 7 6 5 5 5
33 26 28 30 29 31 32 30 31 30 26 25 26 24 23 23 23 25 29 32 34 36 38 39 39 37 35 34 33 32 31 31 30 28 27 26 26 26 26 25 25 24 24 25 27 28 28 28 27 26 24 21 18 17 17 17 18 16 14 12 11 12 14 14 13 13 12 12 13 12 12 12 10 9 8 8 8 8 9 9 8 6 5 5 5
37 33 33 32 30 31 34 34 31 25 21 22 22 20 19 22 23 25 31 33 34 35 37 38 39 39 37 36 35 33 32 32 31 29 28 27 26 26 26 25 25 25 25 26 28 29 29 28 28 26 24 22 21 18 17 18 19 17 14 11 10 11 13 13 12 12 13 14 14 14 14 12 11 11 10 9 9 9 9 10 9 7 6 5 5
35 38 37 33 34 38 40 39 34 24 21 22 21 22 24 26 27 28 31 33 34 36 37 38 40 40 39 38 35 34 34 34 33 31 29 28 27 26 25 25 25 25 26 27 28 28 28 28 28 27 25 23 22 20 18 20 20 19 16 12 9 9 9 10 9 10 11 13 14 14 14 14 13 13 12 11 11 10 10 11 10 9 7 6 5
33 38 39 34 36 40 40 40 39 33 28 28 29 30 29 29 31 30 29 33 37 39 39 38 38 40 39 37 35 34 35 35 34 32 30 29 28 26 25 25 25 25 25 26 27 28 28 28 27 26 26 24 22 20 20 21 21 22 21 18 14 11 9 9 8 8 9 10 11 11 13 14 14 15 14 13 12 12 12 12 12 11 9 7 6
30 36 40 38 38 38 36 36 38 36 30 28 32 37 34 28 28 28 30 36 42 43 41 40 39 39 37 34 34 35 36 35 34 33 31 29 28 27 26 25 25 25 24 25 26 28 28 27 26 25 25 24 24 22 21 21 22 22 22 21 19 16 15 13 12 10 10 11 11 12 12 13 14 16 15 15 14 14 14 13 13 12 11 9 8
24 32 38 41 42 41 39 37 37 37 33 30 32 38 40 35 29 28 33 40 45 45 43 43 41 37 35 34 34 35 35 35 34 33 31 30 29 28 26 25 25 26 26 25 24 25 26 26 25 25 25 24 24 23 22 22 22 22 21 20 19 18 18 18 17 15 14 14 15 15 14 14 14 15 15 15 15 15 15 15 14 13 12 11 10
19 25 29 35 40 41 40 39 39 38 37 36 35 36 42 43 36 34 38 43 46 46 44 42 40 37 34 34 34 35 35 35 35 33 31 30 30 28 27 26 26 26 26 26 24 24 26 27 26 26 26 25 24 22 22 22 22 21 20 19 18 19 19 19 19 19 18 17 18 17 16 14 13 13 12 13 14 14 15 15 15 14 13 12 11
17 21 23 27 34 38 39 39 40 40 37 37 38 39 42 41 40 41 43 46 46 46 46 44 42 39 35 33 34 35 35 36 36 34 32 31 30 29 27 27 26 27 27 27 26 25 26 28 28 27 26 25 24 23 23 23 22 22 21 19 19 19 20 20 19 19 18 17 17 17 16 14 13 12 9 9 10 12 13 14 14 13 12 12 11
15 19 22 25 28 33 38 39 40 39 38 37 36 41 44 42 42 44 45 48 48 47 48 46 44 42 36 32 34 35 36 36 36 35 34 32 30 29 28 27 27 27 28 28 27 26 26 28 29 28 27 26 25 25 25 24 23 23 22 21 19 19 19 19 19 18 17 17 16 16 15 15 14 12 9 8 8 9 10 11 11 10 10 10 10
Wind_Direction
179 178 177 173 172 170 170 171 170 171 171 171 169 169 166 164 163 160 160 159 159 156 153 151 151 150 150 149 146 145 142 140 140 138 136 135 131 126 122 121 119 114 111 108 107 105 103 101 95 91 89 88 87 87 88 86 85 87 90 93 95 93 92 91 91 93 93 92 91 89 86 84 83 82 81 80 81 81 82 79 78 77 74 72 71
178 176 177 175 174 171 171 171 172 174 172 172 170 169 166 163 161 161 161 159 158 156 154 154 154 153 153 150 148 147 144 143 142 139 138 136 130 126 123 121 118 114 113 111 110 106 102 101 97 94 93 91 89 86 84 83 84 86 85 87 93 95 95 94 92 94 94 93 91 88 85 84 83 81 79 78 80 80 81 80 78 77 76 75 74
173 173 176 176 176 172 172 172 174 175 173 172 170 169 164 162 160 160 161 160 158 156 156 156 155 155 153 151 150 148 146 145 143 141 139 135 130 127 124 120 118 116 117 115 111 105 101 100 99 97 95 92 87 82 80 80 84 87 85 82 87 95 99 96 93 92 93 92 90 89 87 85 83 82 79 76 76 76 77 79 79 78 79 79 80
172 172 175 176 177 174 174 173 175 175 173 171 170 168 163 160 159 159 160 159 158 157 157 155 155 155 154 152 151 149 148 147 144 143 140 135 131 127 124 121 120 120 121 118 111 105 102 100 98 96 92 89 86 81 78 79 82 86 84 80 80 89 98 98 93 91 92 92 92 92 90 88 84 80 76 72 69 70 74 76 77 77 82 84 84
172 173 175 176 176 175 175 175 175 174 172 170 169 167 163 160 157 157 158 159 158 157 156 154 155 154 154 154 152 151 150 149 146 145 141 136 132 128 125 122 123 125 125 120 111 104 102 100 97 95 92 89 87 82 79 79 81 84 83 80 78 83 94 97 96 94 93 94 94 93 90 89 85 80 74 71 69 69 71 71 73 76 82 86 87
171 173 176 176 175 175 176 176 176 174 171 170 168 166 163 160 157 156 157 160 160 159 157 155 154 154 155 155 154 154 153 151 149 147 141 137 133 129 127 125 128 130 129 121 110 104 100 96 94 93 92 90 85 81 80 81 82 84 85 83 80 82 92 98 99 98 96 95 94 94 92 90 86 81 75 74 73 72 70 69 74 78 79 78 84
171 174 177 177 175 174 176 176 176 174 171 169 168 166 163 162 158 157 158 161 163 161 159 156 156 156 157 157 156 156 155 152 151 148 142 138 134 131 130 131 133 133 132 122 109 101 96 92 91 91 92 89 84 81 80 81 83 86 88 86 82 83 92 99 102 102 101 99 96 96 95 93 90 86 81 78 76 74 73 71 76 82 83 80 84
173 176 178 177 176 174 176 176 176 174 171 170 168 167 165 163 161 158 159 162 165 164 161 159 158 159 158 158 158 159 157 155 153 149 144 139 136 135 135 136 136 137 135 122 108 99 93 88 89 91 91 89 85 82 79 78 80 86 89 87 83 82 89 97 102 104 104 101 97 95 94 93 90 85 77 73 68 62 63 58 56 74 88 89 77
174 178 178 176 177 176 176 176 176 174 171 170 169 169 166 164 163 161 161 162 165 166 164 162 161 162 160 160 161 161 158 157 155 151 145 141 139 139 139 139 139 139 136 122 108 99 93 86 86 89 89 89 87 81 76 73 75 82 88 87 84 81 84 91 101 108 107 102 98 93 89 88 83 76 67 55 46 32 26 17 12 14 31 35 314
174 177 178 176 178 177 176 177 176 175 172 171 172 170 167 165 164 163 163 163 165 167 166 164 163 164 163 162 163 163 161 159 157 154 148 145 142 141 141 141 141 141 137 125 110 102 94 86 84 86 86 86 86 82 73 68 71 80 87 87 84 80 81 85 95 110 111 104 100 93 87 83 75 66 52 40 33 21 14 14 27 37 38 48 47
175 177 178 176 177 178 178 178 176 176 174 173 174 172 169 167 165 165 165 165 165 168 168 166 165 165 165 165 165 165 163 161 160 157 152 149 145 143 143 143 143 143 141 128 113 105 96 87 84 84 83 82 83 80 71 66 71 80 85 85 82 80 81 82 90 103 106 102 98 95 92 84 68 54 38 31 27 22 17 19 34 45 49 59 67
179 178 177 178 178 179 179 179 178 177 177 176 176 174 171 169 167 166 166 167 167 169 171 169 167 167 167 167 168 167 165 164 163 162 157 153 149 147 145 145 145 144 142 130 115 108 98 90 84 83 81 79 78 76 70 67 72 79 82 82 80 80 82 84 91 98 101 99 98 97 92 76 57 41 29 24 23 25 28 30 37 46 52 59 65
180 179 178 181 180 180 181 179 180 181 180 179 178 176 174 172 170 168 168 168 170 171 173 172 170 169 169 170 171 170 168 167 167 165 161 158 155 151 148 146 146 145 144 132 119 111 102 92 85 82 81 78 75 74 70 69 75 79 80 79 79 80 82 86 92 96 97 96 97 95 82 58 43 31 21 18 23 30 35 37 36 45 55 60 64
182 181 182 183 180 181 181 180 182 183 182 181 180 179 176 175 173 172 171 170 171 173 174 175 174 172 172 172 173 173 172 171 171 169 165 163 160 155 151 150 149 149 147 136 124 116 106 96 87 82 82 78 74 73 72 73 78 80 79 78 78 80 81 87 94 94 93 91 91 88 67 43 34 25 16 16 26 33 37 40 38 46 53 59 67
188 183 184 183 182 184 182 181 184 185 185 184 183 181 179 178 178 176 174 173 173 175 176 177 177 176 175 175 176 176 176 175 174 172 170 168 165 161 157 154 153 153 152 141 129 122 111 99 89 84 85 80 74 74 74 73 76 78 79 79 78 80 80 84 93 92 87 84 81 74 47 34 31 21 15 18 27 35 40 42 44 51 56 62 70
192 186 186 186 185 187 184 183 185 187 188 186 186 184 182 182 182 180 178 177 177 176 178 179 180 180 179 178 179 179 179 179 178 176 175 173 170 168 164 159 157 158 156 146 135 127 115 105 94 88 89 84 77 74 75 72 71 74 76 77 77 80 82 83 88 89 80 70 64 50 25 27 30 17 15 21 25 36 46 45 50 59 67 69 70
193 189 190 190 188 191 187 184 187 189 190 189 189 187 185 185 184 184 182 181 180 179 180 180 182 183 183 182 182 183 182 182 181 180 179 178 176 174 171 165 161 162 161 151 141 134 121 111 102 95 92 88 81 76 75 73 71 69 70 73 75 79 83 83 82 81 72 54 41 20 6 16 23 15 15 22 25 36 47 49 51 62 72 70 69
192 191 193 194 192 195 191 186 189 191 192 192 191 190 188 187 187 187 185 184 183 183 184 183 184 185 186 186 185 185 186 186 184 184 183 182 182 180 177 172 167 167 165 158 149 143 133 124 115 105 96 90 84 79 78 77 73 66 67 70 71 74 77 80 74 69 61 38 24 5 358 7 16 14 15 23 27 33 43 52 54 59 68 69 70
191 190 193 199 197 201 197 190 192 192 193 194 193 194 191 190 189 189 188 186 187 187 188 187 187 187 187 189 189 189 189 188 187 187 186 186 187 186 184 179 175 173 171 165 158 154 149 142 132 117 103 95 88 82 81 81 74 63 64 69 69 69 71 73 67 59 47 28 19 4 1 8 12 13 17 24 31 34 41 54 60 60 64 67 69
195 192 193 200 203 207 203 195 195 194 195 195 195 195 194 194 192 191 190 188 189 191 192 191 190 188 188 190 191 192 192 191 190 189 189 189 190 191 190 188 184 181 179 175 167 165 164 161 151 133 114 103 94 86 83 83 76 63 60 64 67 68 67 65 59 50 38 28 15 6 8 11 9 11 22 31 35 38 43 52 58 62 65 67 69
199 196 194 198 207 212 206 200 197 196 196 196 196 197 196 197 195 194 192 191 193 193 194 194 193 190 188 190 192 194 194 193 192 191 191 191 192 194 195 195 193 191 189 187 180 178 177 174 170 151 129 112 103 93 88 88 78 64 59 60 65 66 64 61 55 47 37 31 19 14 15 12 8 11 29 40 39 41 48 53 56 63 68 70 69
200 198 194 199 212 212 205 203 200 197 197 196 198 199 199 199 197 197 195 194 195 196 197 196 196 194 191 191 193 195 195 196 195 195 194 192 192 195 197 199 199 197 198 197 191 190 189 182 183 171 148 128 113 100 94 95 83 66 61 60 62 64 63 58 53 47 39 34 26 23 20 15 14 21 36 44 42 44 54 57 56 65 70 70 68
202 199 195 199 210 209 204 204 203 199 197 197 199 200 201 201 199 199 198 197 197 197 198 199 199 198 197 195 194 195 196 197 198 198 198 195 194 195 197 200 202 202 203 205 200 199 197 189 190 185 168 148 126 107 98 97 86 71 66 64 63 63 62 55 50 46 40 31 26 27 28 25 27 30 36 44 43 48 57 57 58 67 71 68 65
205 201 196 198 206 206 204 205 204 202 198 198 200 201 202 203 201 201 200 199 198 198 200 201 201 201 201 198 195 195 195 198 199 200 200 199 197 196 197 199 203 205 207 209 206 205 204 196 194 192 180 160 135 115 105 99 88 77 71 68 64 64 63 55 46 43 37 27 26 33 38 38 36 33 34 41 45 55 64 57 58 68 70 68 63
205 203 197 198 204 205 205 205 206 205 200 200 201 201 203 204 204 202 202 201 200 199 202 203 202 204 205 203 199 197 196 197 199 201 202 201 200 199 198 199 202 205 208 211 211 211 209 201 198 197 186 167 147 125 112 104 94 83 72 67 65 65 63 54 45 40 32 27 31 36 41 41 36 34 37 42 47 64 69 55 58 63 66 70 65
204 202 199 200 204 206 206 206 206 207 204 202 202 202 203 205 205 204 203 202 201 201 202 204 204 205 208 207 202 200 198 197 199 201 202 202 202 201 199 200 202 205 208 210 212 213 212 204 201 201 192 175 162 142 123 109 95 85 72 64 63 65 62 54 48 40 33 32 35 37 43 44 39 37 40 48 59 76 71 53 59 61 61 69 66
205 201 201 203 205 207 209 207 206 207 206 205 204 203 205 206 207 207 206 203 202 203 202 202 204 206 208 208 204 201 200 199 200 201 202 203 203 202 201 202 202 205 208 210 212 213 212 206 202 202 195 183 174 162 144 120 95 84 73 64 61 64 62 58 54 43 38 36 36 39 45 46 45 42 43 53 67 85 75 56 59 58 59 66 65
205 202 203 204 206 211 213 211 208 206 207 207 205 205 207 207 208 209 209 206 202 202 203 202 204 206 207 207 204 202 201 201 202 202 203 203 203 203 202 203 203 205 207 210 213 213 212 206 203 203 197 188 180 173 163 142 110 90 75 65 62 64 63 62 55 46 43 38 36 40 46 47 47 46 48 53 62 83 76 53 57 60 60 62 65
205 205 207 206 206 212 215 213 211 208 208 209 206 206 208 208 208 210 210 208 206 203 203 202 203 206 205 204 203 203 203 203 203 205 206 205 204 203 203 204 204 203 205 209 213 214 213 208 204 203 199 192 186 181 175 164 143 115 85 68 64 67 65 61 51 46 45 39 39 44 48 50 50 50 49 48 53 73 69 45 57 66 59 61 64
209 208 211 209 205 211 217 218 214 210 209 210 208 207 208 209 210 211 210 210 209 206 204 203 203 206 206 205 204 204 206 206 205 206 208 208 206 204 203 204 204 202 203 207 211 213 213 210 206 202 202 199 194 191 186 181 174 150 115 73 64 68 66 60 51 46 47 42 44 52 57 55 50 50 47 42 46 60 57 38 51 67 66 67 62
214 209 212 212 207 207 216 221 217 212 210 210 211 209 208 209 210 212 211 211 212 209 207 204 204 206 206 206 207 207 208 209 208 208 209 209 208 207 205 204 204 202 202 204 208 211 211 211 209 205 204 203 201 201 201 202 206 196 179 154 67 74 72 67 57 48 51 48 49 53 62 65 56 49 45 39 39 48 53 38 39 56 64 74 72
217 212 211 214 210 205 210 217 216 213 212 211 212 211 210 210 210 212 213 212 213 212 210 207 205 206 207 208 209 209 210 210 210 209 210 211 210 208 207 206 205 203 202 202 205 208 209 209 209 207 205 206 207 208 213 219 226 226 208 210 212 137 93 74 71 64 61 55 49 47 56 66 60 49 42 37 34 39 52 48 39 47 48 56 72
222 217 212 213 212 209 209 210 211 212 212 213 214 212 212 212 211 211 213 214 214 214 213 211 208 207 207 208 209 211 212 212 212 211 211 213 213 211 209 207 205 204 202 202 204 206 207 208 208 208 207 208 209 211 217 225 234 234 217 214 217 206 210 161 88 80 70 59 47 40 47 55 53 46 40 37 32 30 42 51 48 46 39 39 57
221 220 217 214 213 214 212 210 209 209 211 214 215 214 214 215 214 213 214 215 216 215 216 216 212 208 208 209 210 212 213 214 215 212 211 212 213 213 211 208 206 205 204 202 204 206 207 208 208 209 209 209 210 212 219 230 243 238 216 210 212 211 218 225 190 98 68 57 45 40 42 43 41 40 40 39 32 25 32 42 42 42 40 34 41
214 213 216 216 216 217 217 215 212 209 210 213 215 216 216 217 217 218 217 217 217 216 216 219 216 210 209 209 210 213 213 213 214 212 210 210 209 210 210 208 206 207 206 204 204 206 208 208 209 210 210 210 209 210 216 229 242 234 215 208 212 217 218 223 214 157 63 44 37 36 37 35 34 33 35 38 33 27 28 32 32 30 34 35 33
222 218 220 225 225 226 225 221 217 212 211 213 214 216 218 219 219 221 222 221 221 219 217 220 219 213 210 210 211 213 212 210 211 210 209 209 206 205 208 208 207 207 209 207 204 206 207 208 210 210 210 211 208 206 211 224 231 222 213 211 215 225 227 223 212 215 11 24 21 28 28 25 27 27 27 26 26 27 29 31 28 24 23 28 29
244 242 238 238 235 231 229 226 222 217 213 213 214 216 217 219 221 223 225 226 227 225 222 222 222 217 213 211 211 214 213 209 209 208 207 207 204 202 204 207 207 207 209 209 207 206 207 208 210 210 211 211 208 206 211 221 222 213 211 215 219 228 234 231 221 231 274 338 351 9 15 14 17 20 18 12 12 19 25 30 28 21 18 23 27
248 250 246 243 237 229 225 226 224 219 217 215 213 214 215 217 220 223 227 229 230 230 228 226 225 220 216 213 212 214 214 210 207 206 205 204 201 198 198 201 203 205 208 209 208 207 207 208 210 211 210 209 207 210 216 223 221 212 208 213 222 230 233 237 238 249 275 298 319 336 349 358 4 8 7 1 1 8 14 19 20 15 12 17 25
242 245 246 245 242 234 227 226 223 218 217 217 215 215 216 218 221 225 229 232 233 232 231 229 227 223 219 216 213 214 215 211 207 203 203 201 197 194 194 197 201 203 205 207 207 207 207 207 209 210 209 208 208 213 218 222 218 209 207 211 218 226 232 241 247 258 275 275 284 307 323 333 343 355 356 350 350 355 1 4 2 4 6 10 19
236 244 249 241 239 241 234 226 222 216 212 212 213 216 219 221 225 229 232 235 236 235 233 232 229 224 221 219 215 213 213 212 207 203 202 200 196 193 193 196 200 202 202 203 205 205 206 207 208 208 207 208 211 213 213 213 210 202 202 207 213 220 228 245 256 261 268 266 270 285 302 313 321 335 341 340 342 342 346 352 351 353 0 2 12
230 245 258 243 233 234 227 219 217 213 207 205 205 209 215 220 226 231 233 236 238 237 234 232 230 226 222 222 218 214 213 212 209 204 201 199 196 194 194 195 198 200 199 199 201 204 206 207 207 207 208 212 216 216 210 205 205 203 199 201 212 226 235 247 256 258 260 259 264 275 287 297 303 312 323 332 334 333 333 340 345 346 346 350 5
232 236 255 250 236 229 225 220 215 213 209 203 198 200 207 217 227 233 234 236 239 240 238 234 231 227 223 223 221 216 213 214 212 208 204 201 197 195 195 195 197 199 197 196 198 202 205 206 206 206 209 214 219 222 218 208 207 211 209 208 215 227 238 248 253 252 251 250 256 268 278 283 286 292 303 316 324 325 324 327 337 337 328 333 356
239 233 241 246 239 231 233 233 224 219 214 203 198 200 207 220 231 236 238 238 238 240 241 238 234 229 225 224 223 219 214 214 215 213 209 204 200 197 197 197 198 199 198 196 197 201 204 205 207 208 211 214 216 222 223 217 215 213 211 215 217 218 231 247 252 251 252 251 255 263 268 270 271 276 286 298 311 316 314 316 324 328 316 316 342
238 233 230 233 235 230 228 232 229 223 219 211 211 219 220 222 232 243 246 243 238 239 242 240 235 230 226 223 223 221 217 216 217 216 214 210 204 200 198 199 200 201 201 200 199 201 204 206 209 211 214 215 216 218 217 218 221 219 211 208 208 214 233 250 255 256 257 258 262 265 264 264 262 265 275 286 295 300 304 307 313 316 307 303 324
236 233 228 226 233 232 225 224 224 221 225 225 227 235 228 222 232 244 246 244 241 240 240 239 233 228 225 222 222 222 219 217 217 217 217 215 210 204 201 201 203 204 205 205 204 204 205 208 211 214 216 219 221 220 218 217 221 227 227 221 211 217 245 265 265 263 265 266 268 268 266 264 261 261 267 275 281 287 295 300 302 306 301 295 309
238 235 229 224 229 230 221 216 218 222 232 235 234 237 234 231 235 241 240 236 238 238 234 231 227 223 222 221 219 220 219 219 218 218 217 217 216 211 207 206 206 207 208 209 209 209 209 210 214 217 218 222 225 225 223 221 221 226 232 236 238 245 262 275 272 271 278 279 277 276 275 269 260 258 261 267 274 280 286 290 293 296 293 289 294
238 235 228 223 222 220 216 216 220 222 222 223 223 224 232 242 243 245 244 235 233 234 230 227 224 220 220 220 218 217 218 219 220 219 218 218 219 217 214 211 211 213 213 213 214 215 215 215 217 219 221 223 226 228 228 227 227 229 234 240 247 254 261 267 271 277 284 286 288 290 288 279 267 261 261 265 271 275 280 283 286 289 288 286 286
242 236 230 226 223 222 222 225 225 220 211 211 215 214 222 238 240 240 245 240 236 236 233 230 227 222 220 221 219 216 217 220 221 221 220 220 220 220 219 217 216 217 219 220 221 222 222 221 221 222 223 225 228 230 231 233 235 237 239 243 249 255 260 264 268 272 276 283 289 292 292 289 281 274 268 266 268 272 277 278 278 282 283 280 279
254 245 240 234 232 230 230 229 227 221 212 212 219 216 219 230 233 231 237 242 239 237 236 233 229 224 221 222 221 217 217 220 221 221 222 223 222 222 221 221 221 221 223 225 227 228 228 227 225 225 225 227 229 232 234 239 244 247 248 251 256 259 260 263 266 269 274 281 287 291 295 292 288 290 285 275 272 273 276 278 276 277 277 275 272
265 260 253 245 239 235 234 231 227 225 216 211 217 218 220 230 236 233 234 238 237 235 235 233 229 226 223 223 223 220 219 219 220 221 222 223 223 224 224 223 225 226 227 228 229 231 231 230 230 230 230 230 231 234 238 243 249 253 256 260 263 263 261 263 268 274 280 287 291 296 299 293 289 296 294 279 276 274 273 274 274 275 276 274 270
272 266 257 250 245 238 234 229 225 225 219 213 214 214 219 232 238 233 233 235 233 230 232 232 229 226 223 225 225 222 221 220 220 221 222 222 222 225 227 226 227 228 229 230 231 233 233 231 231 232 233 232 233 235 239 244 248 252 255 258 262 265 266 268 273 279 285 292 297 302 303 295 289 291 286 267 259 260 263 267 273 276 275 272 266